Regional Weather Roundup
Issued by NWS

Home | Current Version | Previous Version | Graphics & Text | Print | Product List | Glossary On
Versions: 1 2 3 4 5 6 7 8 9 10 11 12 13 14 15 16 17 18 19 20 21 22 23 24 25 26 27 28 29 30 31 32 33 34 35 36 37 38 39 40 41 42 43 44 45 46 47 48 49 50
000
ASUS43 KLSX 210957
RWRMO

WEATHER SUMMARY FOR MISSOURI
NATIONAL WEATHER SERVICE SPRINGFIELD MO
400 AM CST TUE FEB 21 2017

NOTE: "FAIR" INDICATES FEW OR NO CLOUDS BELOW 12,000 FEET WITH NO
       SIGNIFICANT WEATHER AND/OR OBSTRUCTIONS TO VISIBILITY.
       CURRENT SKY AND/OR WEATHER CONDITIONS ARE NOT AVAILABLE FOR
       CHILLICOTHE AND FARMINGTON.

MOZ001>031-035>038-043-044-053-054-211100-
...NORTHERN AND WESTERN MISSOURI...

CITY           SKY/WX    TMP DP  RH WIND       PRES   REMARKS
KANSAS CTY INT PTCLDY    50  46  86 N9        29.95R
LEE`S SUMMIT   CLOUDY    53  51  93 N6        29.93S
ST JOSEPH      PTCLDY    42  42 100 N7        29.97F
CHILLICOTHE      N/A     53  48  83 N8        29.94S

$$
MOZ066>068-077>081-088>096-101>105-211100-
...SOUTHWEST MISSOURI...

CITY           SKY/WX    TMP DP  RH WIND       PRES   REMARKS
SPRINGFIELD    MOCLDY    56  54  93 CALM      29.88S
JOPLIN         CLOUDY    52  52 100 CALM      29.91R

$$
MOZ032>034-039>042-045>050-055>058-069>072-211100-
...CENTRAL MISSOURI...

CITY           SKY/WX    TMP DP  RH WIND       PRES   REMARKS
COLUMBIA       NOT AVBL
JEFFERSON CITY CLOUDY    57  57 100 E6        29.90F FOG
ROLLA          FOG       55  55 100 CALM      29.91F VSB 3/4
SEDALIA        CLOUDY    55  53  93 CALM      29.93R
WARRENSBURG    MOCLDY    50  48  93 W3        29.93R
OSAGE BEACH    CLOUDY    55  55 100 SE6       29.91F FOG

$$
MOZ051-052-059>065-211100-
...EAST CENTRAL MISSOURI...

CITY           SKY/WX    TMP DP  RH WIND       PRES   REMARKS
ST LOUIS INTL  LGT RAIN  62  60  93 SW3       29.93S
ST CHARLES     CLOUDY    57  57 100 CALM      29.91F FOG

$$
MOZ072>076-082>087-097>100-106>115-211100-
...SOUTH CENTRAL AND SOUTHEAST MISSOURI...

CITY           SKY/WX    TMP DP  RH WIND       PRES   REMARKS
CAPE GIRARDEAU CLOUDY    56  52  86 CALM      29.92S
POPLAR BLUFF   LGT RAIN  58  57  97 NE6       29.91F FOG
WEST PLAINS    LGT RAIN  57  55  93 NE12      29.89F

$$


USA.gov is the U.S. government's official web portal to all federal, state and local government web resources and services.